GEFSMA_500_meanwind_072.txt.gz
Wind_Speed
25 25 25 25 25 25 25 23 21 19 19 17 16 15 14 12 11 10 9 8 8 7 7 6 6 6 5 5 5 5 4 4 4 5 5 5 4 4 4 4 4 4 4
29 27 27 26 26 28 28 27 25 23 21 21 19 18 17 15 13 12 11 10 10 9 9 8 8 7 7 7 6 6 5 4 5 5 5 5 4 4 4 4 4 4 5
33 32 30 28 28 28 28 27 26 25 24 23 23 21 19 18 16 15 14 13 12 11 11 10 9 9 8 8 7 7 6 6 5 5 5 5 5 5 5 4 5 5 5
36 35 34 32 31 29 27 27 28 27 26 26 25 24 22 21 19 18 17 15 14 13 13 12 12 11 10 9 9 8 8 8 7 7 6 6 6 6 6 6 6 6 6
37 37 36 36 34 32 29 27 27 28 27 26 26 26 25 24 22 20 19 18 16 15 15 14 14 13 12 11 11 10 10 9 9 9 8 8 8 8 7 7 8 8 8
38 38 37 38 37 35 32 30 29 28 27 26 27 27 28 27 25 23 22 21 19 18 17 17 16 15 14 13 13 12 12 11 11 10 10 10 9 9 9 9 9 9 9
38 38 38 39 39 38 36 34 31 30 29 28 28 28 28 29 29 27 25 23 22 21 20 19 19 18 17 16 15 14 14 14 13 13 12 12 12 11 11 11 11 11 11
37 38 40 40 40 40 39 37 35 33 32 30 28 28 30 29 29 29 28 27 26 25 23 22 21 20 19 18 17 17 16 16 15 15 15 14 14 14 13 13 13 13 13
33 36 39 40 41 41 41 39 37 36 34 32 31 30 28 29 30 31 30 30 29 28 26 25 24 24 22 21 21 20 19 18 18 17 17 17 16 16 15 15 15 15 16
29 32 35 38 40 41 42 42 40 38 37 35 34 32 31 29 31 31 30 31 32 32 30 28 27 27 25 24 23 22 22 21 20 20 20 19 19 18 18 18 18 18 18
26 28 31 35 38 40 42 42 42 41 39 38 37 35 34 32 32 32 31 31 32 33 33 31 30 29 28 27 26 25 24 23 22 22 22 22 21 21 20 20 20 20 21
23 25 28 31 34 38 40 41 42 43 42 41 39 37 36 35 34 34 34 33 33 33 34 33 32 31 30 30 29 28 27 26 25 24 24 24 23 23 23 22 22 22 22
20 23 25 28 31 34 38 40 42 43 43 42 42 40 38 38 36 36 36 36 35 34 34 34 34 33 32 31 31 30 29 28 27 27 26 26 25 25 25 25 24 24 25
17 19 21 24 28 31 34 37 39 42 43 43 43 43 42 40 39 39 38 37 36 36 35 35 35 35 35 33 32 32 32 31 30 29 28 27 27 27 27 26 26 26 26
14 16 18 21 24 28 31 35 37 38 40 42 43 43 42 41 40 39 39 39 37 36 37 36 36 36 35 35 34 33 33 32 32 31 30 30 29 29 29 28 28 28 29
12 14 15 18 21 24 28 31 34 36 37 39 41 42 43 42 41 40 40 39 39 38 37 37 37 37 37 36 35 35 34 34 33 32 31 31 30 30 30 30 30 30 30
12 12 13 15 17 20 24 27 29 32 34 36 38 40 41 41 41 40 40 39 39 39 39 38 38 38 37 37 36 35 35 35 34 33 33 32 32 31 32 31 31 31 31
11 10 10 11 13 16 18 20 23 27 29 31 34 36 38 37 39 38 38 39 39 38 38 37 38 38 37 37 36 36 36 36 35 35 34 34 33 34 33 32 31 30 31
12 11 9 9 10 12 14 16 18 20 23 26 29 31 33 34 35 35 35 36 36 37 36 35 36 37 36 35 35 36 36 36 35 35 34 34 34 34 33 32 30 30 30
14 12 10 8 7 8 10 12 14 16 18 21 23 26 28 30 32 32 32 33 34 33 33 34 35 36 36 36 35 35 35 34 34 34 34 34 34 33 32 31 30 30 30
17 15 13 10 7 6 6 8 11 13 14 16 18 21 24 27 28 29 28 28 29 30 30 31 32 33 34 34 33 33 33 33 32 33 33 31 31 31 31 30 30 29 28
19 18 16 13 10 6 5 5 7 10 11 13 14 17 19 22 22 23 25 25 25 26 28 30 30 30 30 30 31 30 30 31 31 30 30 30 30 30 29 28 28 27 27
21 19 18 16 12 8 6 4 4 6 9 11 12 13 15 17 18 19 21 22 23 23 24 26 27 28 28 28 28 28 27 27 27 28 27 27 27 28 27 26 25 24 24
22 21 20 18 15 12 8 5 3 3 5 7 8 10 12 13 14 16 17 17 19 19 19 20 22 23 24 25 25 25 25 25 25 25 25 25 24 24 24 23 22 22 21
24 23 22 20 18 15 12 9 5 2 1 4 5 7 9 10 11 13 14 15 15 16 17 18 18 18 18 19 20 21 22 22 22 22 23 23 23 22 21 20 20 19 19
26 24 23 22 20 18 16 13 10 7 3 0 2 4 6 8 9 11 12 13 14 15 15 15 15 15 16 16 17 18 20 21 21 21 21 21 21 21 20 19 19 18 17

GEFSMA_500_meanwind_078.txt.gz
Wind_Speed
31 28 26 26 26 27 26 24 23 23 22 20 19 18 17 15 14 13 12 12 12 11 11 10 9 9 9 8 8 8 8 7 7 8 8 8 8 7 7 7 6 6 6
35 34 32 30 29 28 29 28 27 25 24 23 22 21 20 18 17 15 15 14 14 13 13 11 11 10 10 9 9 9 8 8 8 9 9 9 8 8 8 7 7 7 6
38 37 36 35 33 31 30 30 29 28 27 26 25 24 23 22 20 19 17 17 16 15 15 14 13 12 11 11 10 10 9 9 9 9 9 9 9 9 9 8 8 7 7
39 38 38 37 36 35 33 32 31 30 29 28 28 27 26 25 24 22 20 19 18 17 16 16 15 14 13 12 12 11 11 10 10 10 10 10 10 10 9 9 9 8 8
38 39 38 39 39 38 36 35 33 32 30 30 30 29 28 27 26 24 23 22 21 19 19 18 18 17 16 15 14 13 13 12 12 11 11 11 11 11 10 10 10 10 9
37 37 38 39 39 39 37 37 36 34 32 31 31 32 31 29 29 27 26 25 24 22 21 21 20 19 18 17 16 16 15 14 14 13 13 12 12 12 11 11 11 11 11
34 36 37 39 40 40 40 39 38 38 35 33 32 32 31 31 30 30 29 27 27 26 24 23 22 21 20 20 19 18 17 17 16 15 15 14 13 13 13 13 12 12 12
32 33 35 37 40 41 41 41 40 39 38 37 34 33 33 33 32 32 31 30 30 29 27 26 25 24 23 22 21 20 19 19 18 17 17 16 16 15 15 14 14 14 14
29 31 33 35 37 39 40 41 42 41 40 39 38 35 34 33 33 34 33 32 32 31 30 29 29 27 26 25 24 22 21 21 20 19 18 18 17 17 17 17 17 16 16
26 29 31 33 35 37 39 41 42 43 43 41 41 39 36 36 35 35 34 34 35 34 33 32 32 30 29 27 26 25 24 23 23 22 21 20 20 19 20 19 19 19 18
23 26 29 31 33 35 37 40 41 42 43 43 43 42 40 38 36 35 35 35 35 36 34 34 34 33 32 31 29 28 27 26 25 24 23 22 22 22 21 21 21 21 20
20 23 26 28 30 32 34 37 39 40 42 44 44 44 43 41 39 37 36 36 36 37 37 36 35 35 34 33 32 31 30 29 29 28 27 26 25 24 23 23 23 23 23
17 19 22 25 27 29 31 34 36 38 40 42 44 45 45 44 42 39 38 37 37 38 38 37 36 36 35 34 34 34 33 32 31 30 29 28 28 27 26 25 25 25 24
15 17 20 22 25 27 29 31 33 35 38 41 43 45 44 44 43 41 39 38 38 38 38 38 37 37 36 36 36 35 35 34 33 32 31 30 30 29 28 28 27 27 26
14 16 18 20 23 25 27 29 31 34 36 39 41 43 44 44 44 44 41 40 39 38 38 38 38 38 37 37 37 37 36 35 35 35 33 33 32 30 30 29 29 29 29
12 14 16 18 20 22 25 27 29 32 34 37 38 40 42 44 44 44 44 42 40 40 39 38 38 38 39 38 37 37 37 36 36 35 34 34 33 33 32 31 31 31 31
12 12 13 14 16 18 21 24 26 28 31 33 35 37 39 42 43 43 44 43 42 41 41 40 39 39 39 38 38 38 37 37 37 36 36 35 35 34 34 33 33 32 31
14 13 13 12 13 14 16 19 21 24 27 29 31 34 36 39 40 41 42 42 42 41 41 41 40 39 38 38 38 38 38 38 37 37 37 37 36 36 36 35 35 34 33
16 14 12 11 11 11 12 14 17 19 22 25 27 29 32 34 37 38 39 40 41 40 40 40 40 39 38 37 38 39 38 38 38 38 37 37 36 36 36 36 36 36 35
20 18 15 13 10 9 8 9 11 14 17 20 23 26 28 29 32 34 36 37 38 38 37 38 38 38 38 37 38 38 38 39 38 38 37 37 37 36 37 37 36 35 35
22 20 18 16 12 9 7 6 7 10 12 15 17 20 24 26 28 29 32 34 35 36 37 37 37 36 37 38 38 39 38 37 38 37 36 36 35 35 35 35 34 34 33
23 22 20 18 15 11 9 7 5 4 7 10 13 16 19 21 25 26 28 30 31 32 34 35 36 36 36 37 37 38 37 36 36 36 35 34 34 34 35 34 34 33 33
25 23 22 20 17 14 12 9 6 4 3 6 9 12 15 17 20 24 26 27 28 28 29 31 32 32 34 34 34 35 36 36 34 34 34 34 34 32 32 31 32 31 31
25 24 23 21 19 17 14 12 10 6 3 3 5 7 10 13 14 18 20 23 24 23 25 26 28 29 30 31 32 32 32 33 33 32 32 32 31 32 32 31 30 28 27
25 24 24 23 21 19 17 14 13 9 6 3 2 4 6 8 10 12 14 18 20 21 22 23 25 26 27 27 28 29 30 31 31 31 30 31 30 30 29 28 28 27 26
24 23 23 22 21 20 18 17 15 12 9 6 2 2 4 6 8 9 10 13 16 18 19 19 20 22 23 24 25 26 26 27 28 29 29 29 28 28 27 26 25 24 24

GEFSMA_500_meanwind_084.txt.gz
Wind_Speed
32 31 32 32 29 27 27 28 27 26 26 24 23 22 20 18 16 15 14 13 12 12 12 12 11 10 10 10 9 9 9 9 9 9 9 10 9 9 8 8 7 7 6
34 34 33 33 32 30 29 29 28 27 26 26 25 23 22 20 19 18 16 15 14 14 13 13 13 12 12 11 11 10 10 9 9 10 10 10 10 9 9 8 8 7 7
32 32 33 33 33 33 32 31 29 28 28 27 26 25 24 22 21 20 19 18 16 16 15 15 14 14 13 13 12 12 11 10 10 11 11 11 11 10 10 9 9 8 8
31 32 31 32 32 33 33 33 31 30 30 29 29 27 25 24 23 22 21 20 19 18 17 17 16 16 15 14 14 13 12 11 11 12 12 12 11 11 10 10 10 9 9
30 31 32 33 32 32 33 34 32 32 32 31 30 29 28 26 25 25 24 23 22 21 20 19 18 18 17 16 15 15 14 13 12 12 12 13 12 12 11 11 11 10 10
28 29 30 32 32 32 33 33 34 34 33 33 32 30 30 29 28 27 27 26 24 23 23 22 21 20 19 18 17 17 16 15 14 14 13 13 13 13 12 12 12 12 11
26 27 29 30 32 32 33 33 33 34 34 34 33 32 31 31 30 29 29 27 27 26 25 24 23 22 22 21 20 19 18 18 17 16 15 14 14 14 14 13 13 13 13
23 25 27 28 30 31 33 33 34 35 34 34 34 34 31 31 30 30 30 30 29 28 28 26 26 24 24 23 22 22 21 20 20 19 18 17 16 16 15 15 15 15 14
20 22 24 26 28 30 31 33 34 35 35 35 34 34 33 33 31 31 31 32 31 31 31 29 28 27 26 25 24 24 23 22 22 21 21 19 19 18 18 17 17 17 16
17 19 22 24 26 28 30 32 34 35 35 35 36 36 35 34 33 31 31 32 33 32 32 32 30 30 29 27 26 26 26 25 24 23 23 22 21 20 19 19 19 19 18
15 17 19 21 24 26 28 30 32 34 35 35 36 37 37 37 35 34 33 32 32 33 33 33 33 31 30 29 29 28 28 27 26 26 25 24 23 22 22 21 21 21 21
14 15 17 19 22 24 26 28 30 32 33 34 35 36 37 37 37 37 36 35 34 34 34 35 35 34 33 31 30 31 30 29 29 28 27 27 26 25 24 24 24 23 23
13 14 15 17 19 21 23 26 28 30 31 32 33 35 36 38 38 38 39 37 36 35 35 36 35 34 35 34 33 32 33 32 31 31 30 29 28 27 27 27 26 26 26
14 14 14 15 17 18 21 23 25 27 29 31 32 34 35 36 37 38 39 39 38 36 35 35 35 35 35 35 35 34 34 34 34 33 32 32 31 30 30 29 29 28 28
15 14 14 14 15 17 18 20 22 24 26 28 30 32 33 35 35 37 38 39 40 39 37 36 35 35 35 36 36 36 36 36 35 34 34 34 33 32 32 31 31 31 30
15 15 14 13 13 15 16 18 19 21 24 26 28 29 31 32 33 34 36 37 38 38 37 36 35 36 36 35 37 37 37 35 35 35 35 35 34 34 34 33 33 33 33
17 16 15 13 12 12 13 14 16 18 20 23 25 27 28 31 32 33 34 36 36 36 35 35 35 35 35 35 35 37 38 37 36 37 36 35 35 35 35 35 35 35 35
19 17 16 14 13 12 11 12 13 15 17 19 21 23 25 27 29 31 32 34 35 36 36 36 36 36 35 35 36 37 38 38 37 37 37 36 36 36 36 36 36 35 35
22 20 18 16 14 12 11 10 10 12 14 15 17 19 22 24 26 29 30 31 33 35 36 36 37 36 36 35 35 37 38 39 39 38 38 38 37 37 37 36 36 35 36
23 22 20 18 16 14 11 10 9 9 10 12 14 15 17 20 23 26 28 29 31 33 34 35 36 36 36 36 36 36 37 37 38 38 38 38 37 38 38 37 37 36 36
24 23 22 20 18 16 14 12 11 10 9 9 10 11 13 16 19 22 25 27 28 30 31 32 33 35 35 36 36 36 36 37 37 37 37 37 37 37 37 37 37 37 37
24 23 23 22 20 19 17 15 13 12 9 8 7 8 9 12 15 17 20 22 25 26 27 28 30 32 33 33 34 34 35 36 36 35 36 36 36 37 36 36 36 36 36
24 23 23 23 22 21 20 18 16 14 12 9 6 6 7 9 11 13 16 18 21 23 25 26 27 28 30 31 31 32 33 34 34 33 34 35 36 35 35 36 36 35 35
23 23 22 23 23 22 21 20 18 16 14 11 8 6 6 6 8 9 12 15 16 19 21 23 24 25 26 28 30 29 30 31 33 33 34 35 34 33 33 34 36 36 35
22 22 22 22 22 22 22 21 20 18 17 14 11 8 6 6 6 7 9 12 15 17 19 21 22 23 24 25 27 28 29 29 31 33 33 33 34 33 33 32 32 32 32
20 21 21 21 21 21 22 22 21 20 19 17 14 11 8 6 5 6 8 10 12 15 16 18 19 21 21 23 24 25 26 27 28 29 30 31 32 32 31 30 29 29 29

GEFSMA_500_meanwind_090.txt.gz
Wind_Speed
33 32 32 32 31 30 31 31 30 30 30 28 26 25 23 22 20 19 17 16 14 14 13 13 12 12 11 12 12 12 12 12 12 11 12 12 12 11 11 11 10 10 9
30 31 32 31 31 31 31 31 31 29 29 29 28 27 25 23 22 22 20 18 17 16 15 15 14 13 13 13 13 13 13 13 12 12 12 13 12 12 11 11 10 10 9
28 29 30 30 30 31 31 31 32 30 29 28 29 28 27 25 23 23 22 21 19 18 17 16 15 15 15 14 14 14 14 14 13 13 13 13 13 13 12 11 11 11 10
25 26 27 29 29 30 30 31 32 31 29 29 30 30 29 27 25 24 24 23 21 20 19 18 17 17 16 16 15 15 15 15 14 14 14 14 14 14 13 12 12 11 11
22 23 25 26 28 28 30 31 31 31 31 30 29 31 31 30 27 26 26 25 23 22 21 20 19 18 18 18 17 16 16 16 16 15 15 15 15 15 14 14 13 12 11
19 21 23 25 27 28 29 31 31 31 31 31 30 30 31 31 30 28 28 27 26 24 23 23 22 20 20 20 19 18 17 17 17 16 16 16 16 16 15 14 14 13 13
17 18 21 24 25 26 28 29 30 31 30 30 31 30 30 30 31 30 30 29 28 27 26 26 25 23 22 22 21 20 19 19 18 17 17 16 16 16 16 15 15 14 14
14 16 18 21 23 25 27 28 29 30 31 31 30 31 32 31 31 31 31 31 31 30 29 28 27 27 25 24 24 23 22 21 20 19 18 18 17 17 17 16 16 16 16
13 14 16 18 21 24 25 27 27 28 30 32 31 31 32 32 32 31 32 31 32 32 31 31 30 29 28 27 26 26 25 24 23 22 21 20 20 19 19 18 18 17 17
12 13 14 16 18 21 23 25 27 28 29 31 32 32 32 33 33 32 33 33 33 33 32 33 32 31 30 30 28 28 28 27 25 25 24 23 22 22 21 21 20 19 19
12 12 12 14 16 18 20 23 25 27 29 30 31 32 33 33 33 33 34 34 33 34 34 34 34 33 32 32 31 30 30 28 27 27 26 25 24 24 23 23 22 21 21
12 11 11 11 12 14 17 19 22 24 27 29 30 31 33 34 35 35 35 34 33 34 35 35 35 35 35 35 34 32 32 31 30 29 28 28 27 26 26 25 24 24 23
12 11 10 10 10 11 13 15 18 21 24 26 28 29 32 33 34 34 35 36 35 33 35 35 36 36 36 36 36 36 34 33 32 31 31 31 30 29 28 28 27 26 25
12 11 10 9 8 9 10 12 15 17 20 23 25 27 30 31 33 34 35 35 36 35 35 36 37 38 38 38 38 38 37 35 34 34 32 32 32 31 30 30 29 29 28
14 12 10 9 8 8 8 10 11 14 17 20 22 25 27 30 31 32 34 35 36 35 35 37 38 39 39 40 39 38 37 37 36 36 35 34 34 34 33 32 31 31 31
15 13 12 10 9 8 6 7 8 10 13 16 19 22 25 28 29 31 33 34 36 35 35 36 38 38 39 39 39 39 38 37 37 38 37 36 35 35 34 34 34 34 33
17 15 13 12 10 9 8 7 7 9 10 13 16 20 22 24 27 29 31 33 35 36 36 36 38 39 40 39 38 39 39 39 39 38 38 37 36 36 36 36 36 36 35
19 18 16 14 12 11 10 8 8 9 9 10 12 15 19 21 24 26 28 31 32 34 36 36 36 37 39 39 39 38 39 39 39 40 39 39 39 38 38 38 37 37 36
21 19 18 16 14 13 12 10 9 9 9 10 11 13 15 18 21 23 25 28 30 32 34 36 36 36 37 38 39 39 38 39 39 40 40 40 40 40 39 39 39 38 37
21 21 20 18 16 15 14 13 12 10 9 9 9 10 12 15 17 20 22 24 27 29 31 33 35 36 36 37 38 38 37 37 37 38 39 39 39 39 39 39 40 39 39
20 20 20 19 18 17 16 15 14 13 11 9 8 7 9 11 13 16 18 21 23 26 28 30 32 33 34 35 36 36 37 37 36 36 36 37 39 39 38 38 39 40 39
19 20 19 19 18 18 17 16 16 15 14 11 9 7 7 7 8 11 13 16 19 22 24 26 28 30 31 33 34 36 36 36 36 36 36 36 38 38 38 38 39 40 40
18 19 19 19 19 18 17 17 16 16 15 13 11 9 7 6 7 8 10 12 15 18 21 23 26 28 29 31 33 34 35 35 36 36 35 35 36 37 38 38 38 38 38
18 18 18 18 18 18 18 18 18 17 16 15 13 11 9 7 6 7 8 10 12 15 18 21 24 26 28 29 30 31 33 33 34 35 35 35 35 35 36 36 36 37 37
17 17 17 17 18 18 18 18 18 18 17 16 15 13 10 8 7 6 7 8 10 12 15 18 21 24 26 28 30 31 32 32 33 34 34 34 33 34 34 34 35 35 36
17 17 17 17 17 18 18 17 17 17 17 17 16 15 12 9 7 7 7 7 9 10 12 14 17 20 22 25 27 28 30 31 31 32 32 32 32 32 33 33 33 35 36

GEFSMA_500_meanwind_096.txt.gz
Wind_Speed
30 31 32 32 32 31 30 31 30 28 26 25 24 23 24 23 21 19 18 17 15 14 13 13 13 13 12 12 12 12 12 13 13 12 12 13 13 13 12 12 11 10 10
27 27 29 30 31 31 30 30 30 29 27 26 26 25 24 25 24 22 20 19 18 16 15 14 14 14 14 13 13 13 13 14 13 13 13 13 13 13 13 12 12 11 10
23 25 26 27 29 30 29 28 28 28 27 26 26 26 26 26 26 24 23 22 20 19 17 17 16 16 15 15 14 14 15 15 14 14 13 13 14 14 13 13 12 11 11
19 21 23 25 26 28 29 28 28 27 27 26 26 27 26 27 27 27 26 24 23 21 20 19 19 18 18 17 16 16 16 16 15 15 15 14 14 14 14 13 13 12 12
16 18 20 22 24 26 27 28 28 28 28 28 27 28 28 28 28 29 28 27 25 23 22 21 21 20 20 19 18 18 17 17 17 16 16 15 15 15 15 14 14 13 13
14 16 17 19 21 24 26 27 28 28 28 28 28 29 29 29 29 30 30 29 28 26 25 24 23 22 22 21 20 19 19 18 18 18 17 16 16 17 16 16 15 14 14
13 15 16 17 19 21 24 26 27 28 28 28 29 29 30 30 30 30 30 30 29 28 28 26 25 24 24 23 22 21 21 20 19 19 18 17 17 17 18 17 16 16 15
12 13 15 16 18 20 22 25 27 27 28 28 29 30 30 31 31 31 31 31 30 30 29 29 28 27 26 25 24 23 23 22 21 20 20 19 18 18 18 18 18 17 17
12 12 13 14 16 18 20 23 25 27 28 28 28 29 30 31 31 31 32 32 32 31 31 31 30 29 28 28 27 26 25 23 22 22 22 21 20 20 19 19 19 18 18
12 11 12 13 14 15 17 19 22 24 26 26 27 29 29 30 31 32 33 34 33 33 33 33 32 31 30 29 29 28 27 26 25 24 24 23 22 22 21 20 20 19 19
12 11 10 10 11 13 14 16 18 21 23 25 26 28 29 29 31 32 33 35 35 34 34 35 34 34 33 32 31 31 30 29 28 27 26 25 25 24 23 22 22 21 21
12 11 9 9 8 9 11 12 14 18 20 23 24 26 27 28 31 32 33 34 35 35 35 35 35 36 35 35 34 33 32 31 29 29 28 28 27 26 26 25 24 24 23
14 12 10 8 7 7 8 10 12 15 17 20 22 24 25 27 30 31 32 34 35 35 36 37 36 37 38 38 37 36 35 34 33 32 31 30 30 29 29 28 27 26 26
15 13 11 10 7 5 6 7 9 11 14 16 19 21 23 24 27 30 32 33 35 36 36 38 38 38 38 39 39 39 38 36 35 34 34 33 33 32 32 31 30 29 29
15 14 13 11 9 6 5 6 7 9 11 13 16 19 21 22 24 27 30 31 33 35 35 37 39 40 39 40 40 40 40 39 38 36 36 36 35 35 34 33 33 32 31
16 15 14 12 10 9 7 5 5 7 8 11 13 16 18 20 22 24 27 28 31 34 35 35 37 39 40 40 41 40 41 41 40 39 38 38 37 37 37 36 36 35 34
17 16 15 13 12 10 9 7 5 6 7 9 11 13 16 18 20 22 25 28 30 32 33 35 36 37 39 40 41 42 42 42 42 42 41 40 39 39 39 39 38 37 36
18 17 16 15 14 12 10 9 7 6 6 7 9 11 14 16 18 20 23 25 27 30 32 34 36 36 38 39 41 42 42 43 44 44 43 42 41 41 40 40 40 39 39
18 18 17 15 15 14 12 10 9 8 7 7 8 9 11 13 16 18 20 23 25 27 29 32 34 36 36 38 40 41 42 43 43 44 44 42 42 42 41 41 40 40 40
19 18 17 16 16 15 14 12 10 9 9 9 9 8 9 10 12 14 17 20 22 25 27 28 31 33 34 36 38 40 41 42 43 43 43 43 43 43 42 42 41 42 41
18 18 17 16 16 16 16 15 13 12 11 10 10 10 9 9 10 11 13 16 19 22 24 26 28 30 31 33 34 36 38 40 40 41 42 43 43 42 42 41 41 41 41
18 17 17 16 16 16 16 16 15 14 13 12 12 12 10 9 9 9 11 12 14 17 19 21 23 26 28 29 31 32 34 37 38 40 41 41 42 42 41 41 41 41 41
17 17 16 15 15 15 15 15 15 15 14 14 13 13 12 10 10 9 9 9 10 12 15 17 19 21 24 26 28 29 32 34 35 37 39 39 40 40 40 40 41 41 40
16 16 16 15 15 15 14 14 15 15 14 14 14 14 14 12 11 10 9 9 10 11 12 14 16 18 21 23 24 26 29 31 33 35 36 37 38 39 40 40 40 40 39
16 16 16 15 15 15 14 14 14 15 15 15 14 14 14 14 13 12 11 10 9 10 11 12 13 15 17 19 21 23 25 27 29 32 34 35 36 37 38 39 39 39 40
16 16 16 15 15 15 14 14 14 14 15 15 14 14 14 14 14 13 12 11 10 9 9 11 12 14 15 17 19 21 22 24 27 29 32 34 35 37 37 38 38 38 39

GEFSMA_500_meanwind_102.txt.gz
Wind_Speed
23 24 26 28 30 31 31 30 28 28 28 27 26 25 24 22 22 22 21 19 18 17 16 15 15 15 15 13 13 13 13 14 14 13 14 14 14 14 13 13 13 12 12
20 22 23 25 26 28 29 30 30 28 28 27 27 27 26 24 24 23 22 21 20 19 18 17 16 17 16 15 14 15 15 15 15 15 15 14 14 14 14 14 13 13 13
19 19 21 22 24 25 28 29 29 30 29 28 27 26 27 26 25 24 24 23 22 21 20 19 19 18 18 17 16 16 16 16 16 17 16 15 15 15 15 15 14 14 13
17 17 19 20 22 24 26 27 29 30 30 29 28 27 28 27 27 26 25 25 24 24 23 22 21 20 20 19 18 18 18 17 17 17 17 17 16 16 16 16 15 15 14
14 15 16 18 20 21 24 26 28 30 30 30 29 28 28 28 27 28 27 27 26 25 24 23 23 22 21 20 20 19 19 18 18 18 18 18 17 17 17 17 16 16 15
13 14 14 15 17 19 21 23 26 28 29 30 29 29 28 29 29 28 28 28 28 27 25 25 24 24 23 22 22 21 20 20 19 19 19 19 19 18 18 18 18 17 17
11 12 13 14 16 17 19 21 24 25 27 28 29 29 28 28 29 29 28 29 29 28 28 27 26 25 25 24 23 22 22 21 21 20 21 21 20 20 19 19 18 18 18
10 10 11 12 14 15 17 19 22 24 25 27 28 28 28 28 28 30 29 29 30 30 30 29 28 27 27 26 25 24 24 23 23 22 22 22 22 21 21 21 20 20 19
10 10 10 10 12 13 14 17 19 21 23 25 27 28 28 28 29 29 30 29 30 30 30 30 30 30 29 28 27 26 26 25 25 25 24 24 23 23 22 22 21 21 21
10 9 8 8 9 10 12 14 16 18 21 23 25 27 27 27 27 28 29 30 31 32 31 31 32 32 31 30 29 28 27 27 27 27 26 26 25 24 23 23 23 23 22
10 8 7 6 6 7 8 10 13 16 19 21 23 24 25 25 25 27 28 30 32 33 33 32 32 32 32 31 31 30 29 28 29 29 28 27 27 26 25 25 25 24 24
11 9 8 6 5 5 5 7 10 12 15 18 20 22 23 23 24 25 27 29 31 33 33 33 33 33 33 33 33 32 31 31 30 30 30 30 29 29 28 27 26 26 26
12 10 9 7 5 3 3 5 7 9 12 15 17 20 21 21 22 24 25 27 29 31 33 34 35 34 34 34 34 34 34 33 33 32 32 31 31 31 30 29 29 28 28
14 12 10 8 6 4 2 3 4 6 8 12 15 17 19 20 20 22 24 25 27 29 31 34 35 35 36 35 35 35 35 35 35 35 34 34 33 33 33 32 32 31 31
14 13 11 9 7 6 3 2 3 5 6 8 12 15 17 19 20 21 22 24 26 28 29 31 33 34 35 36 36 37 37 37 37 37 37 37 36 35 35 35 34 34 33
14 13 12 10 9 7 5 3 2 3 5 6 9 11 14 17 19 20 20 22 24 26 28 31 33 35 36 37 37 38 39 39 39 38 38 39 39 38 38 37 36 36 35
15 13 12 11 9 8 6 5 3 2 3 4 6 8 11 14 16 18 19 20 22 24 27 29 32 35 37 37 37 37 39 41 41 41 41 41 42 41 41 40 39 39 38
16 14 13 12 11 9 8 7 5 4 2 3 5 7 9 11 14 16 17 19 21 23 25 27 29 31 35 37 38 37 39 41 42 42 42 42 42 43 43 42 42 41 40
16 15 13 12 12 10 9 7 6 5 4 3 3 4 6 8 11 13 14 16 18 20 22 25 27 29 32 34 36 37 38 39 40 42 44 44 44 44 44 43 43 42 42
16 15 14 13 12 10 9 8 7 6 5 5 4 4 5 6 7 10 12 14 15 17 19 22 25 27 29 32 33 35 37 38 39 39 41 42 43 43 43 43 43 43 43
15 15 14 13 12 11 10 9 8 7 7 6 5 5 5 5 6 8 9 11 13 15 16 19 22 24 25 28 31 33 35 37 39 39 39 40 41 41 42 42 43 43 43
14 14 14 13 12 11 10 10 9 8 8 7 6 6 6 6 6 7 8 10 12 13 14 15 18 20 23 25 28 30 31 33 35 37 38 39 41 41 41 42 42 43 43
14 14 13 12 12 11 11 10 9 9 8 8 7 7 7 7 7 8 8 9 10 11 12 13 15 17 19 22 25 26 28 30 32 34 34 35 37 39 40 40 41 42 42
14 14 13 12 12 12 11 11 10 9 9 9 8 8 8 7 8 8 8 9 9 10 11 12 13 15 17 19 21 23 25 26 28 30 31 31 33 35 37 38 38 40 42
14 14 14 13 12 12 12 12 11 11 11 10 10 9 9 9 8 8 8 9 9 9 11 12 13 14 15 16 17 18 20 22 23 25 27 28 30 32 35 36 38 39 40
15 15 14 14 13 13 13 13 13 12 12 11 11 10 10 10 10 10 10 9 10 10 10 10 11 11 12 13 15 16 18 19 20 22 23 25 27 29 31 34 36 37 38

GEFSMA_500_meanwind_108.txt.gz
Wind_Speed
21 22 22 22 23 25 26 26 28 28 28 28 28 26 25 26 25 23 22 21 21 20 19 17 16 16 15 14 13 13 13 12 12 11 11 11 11 11 11 10 10 10 9
20 20 20 20 21 23 24 25 26 27 28 28 28 28 27 27 26 25 23 22 22 22 21 19 18 17 16 16 15 14 14 14 13 13 12 12 12 12 12 11 11 11 10
19 19 18 18 20 21 22 23 24 25 27 28 28 28 27 27 26 26 24 23 22 23 22 21 20 18 18 17 17 16 16 15 15 14 13 13 13 13 13 13 12 12 12
18 17 17 17 17 19 20 21 22 24 25 26 27 28 27 27 27 27 26 24 23 23 23 22 22 20 19 19 19 17 17 16 16 15 15 14 15 14 14 14 14 13 13
17 15 15 16 16 17 18 20 21 23 24 25 26 27 27 27 26 28 28 26 25 24 24 24 23 22 21 20 20 19 18 17 17 17 17 16 16 16 15 15 15 14 14
16 14 14 14 15 15 16 18 20 21 23 25 25 26 26 26 26 26 28 27 26 25 25 25 25 24 23 22 21 21 20 19 19 19 19 18 18 17 17 17 16 16 15
15 14 13 13 14 14 14 16 18 20 21 24 24 25 26 27 27 26 27 28 27 27 26 25 25 25 24 24 23 23 22 21 20 20 20 19 19 19 18 18 17 17 17
15 14 13 12 12 12 12 13 15 18 20 22 23 25 25 26 27 27 27 27 29 28 27 26 26 26 25 25 25 24 24 22 22 22 21 21 21 21 20 19 19 18 18
15 13 12 11 10 10 11 11 12 15 17 19 22 23 24 25 25 27 27 27 28 29 28 27 26 26 26 25 25 25 25 24 23 24 23 22 22 22 22 21 20 20 20
14 13 12 10 9 8 9 10 10 11 14 16 19 22 23 24 25 26 27 27 28 28 27 27 28 28 28 28 26 26 26 25 25 25 25 24 23 23 22 22 22 22 21
14 13 11 9 7 7 7 7 8 10 11 13 16 19 22 23 24 25 26 26 26 27 28 28 28 29 29 29 28 28 27 26 26 26 27 26 25 25 24 24 23 23 23
14 13 11 9 7 6 5 5 6 8 9 11 13 16 19 20 22 23 24 23 24 26 27 27 28 30 30 29 29 30 29 29 29 28 28 28 28 27 26 26 26 25 25
15 13 12 10 7 6 4 4 5 6 7 9 11 13 16 18 20 21 22 22 22 24 26 27 27 28 30 30 30 30 31 31 30 30 30 29 29 29 29 28 28 27 27
15 14 12 11 9 6 4 3 4 5 6 7 9 11 13 16 18 19 20 20 21 22 25 26 26 28 30 31 31 31 31 31 31 32 32 31 30 30 30 30 30 30 29
15 14 13 12 10 8 5 3 3 4 5 6 7 9 11 13 15 17 18 18 19 20 22 24 26 27 29 30 31 32 32 32 33 33 33 33 33 32 32 32 32 31 31
15 15 14 12 11 9 7 5 4 3 3 4 6 8 10 12 13 15 16 18 18 19 20 22 24 25 27 29 30 32 33 33 33 33 34 35 35 34 34 34 35 35 34
16 15 14 13 11 9 8 6 5 4 3 3 4 5 8 10 12 14 15 16 16 17 18 20 22 24 24 26 29 31 33 34 35 35 35 36 37 36 36 37 37 37 37
16 16 15 14 13 11 9 8 6 4 3 2 2 3 5 7 10 12 14 15 16 16 17 18 19 21 22 24 27 29 32 34 35 37 37 37 38 38 38 39 39 39 39
16 16 16 15 13 12 10 9 7 5 4 3 2 2 4 6 7 9 11 13 14 15 16 16 18 19 21 23 25 28 31 33 35 36 36 37 37 37 38 39 40 40 41
16 15 16 15 14 13 12 10 8 7 6 4 4 3 3 5 6 8 9 10 12 13 14 15 17 19 20 21 23 25 27 31 33 35 36 37 37 37 38 39 40 41 41
15 15 15 14 14 13 12 11 9 8 7 6 5 4 4 4 5 7 8 9 11 12 13 14 15 17 18 19 21 23 25 27 30 33 34 36 37 38 38 38 39 41 42
15 15 14 14 13 13 12 11 10 9 8 7 6 6 5 6 6 7 8 9 10 11 12 13 14 15 17 18 19 20 22 25 27 29 31 33 35 37 37 38 38 39 40
14 14 14 14 13 13 12 11 10 9 9 8 8 7 7 7 7 7 8 8 9 10 11 12 13 14 15 17 18 19 20 22 24 26 28 30 32 33 35 36 37 38 38
14 13 13 13 13 13 13 12 11 10 10 9 8 8 8 8 8 8 8 9 9 10 11 12 13 14 15 15 16 17 18 19 21 23 25 27 29 30 31 33 34 35 37
14 14 13 13 13 13 13 13 12 11 10 10 9 9 9 9 9 9 9 10 10 11 12 12 13 13 14 15 15 16 17 18 20 21 22 23 25 26 27 29 30 32 33
15 14 14 14 14 14 14 13 13 12 12 11 11 11 10 10 10 10 10 11 11 11 12 13 13 13 14 15 15 16 17 18 19 20 22 22 23 25 26 27 28 30 32

GEFSMA_500_meanwind_114.txt.gz
Wind_Speed
17 18 18 19 20 22 24 25 26 26 28 30 30 29 28 26 25 25 24 23 23 22 21 19 18 16 16 15 15 14 13 13 12 12 12 12 12 13 13 13 14 14 13
17 17 18 18 19 20 22 24 25 27 27 30 31 31 30 28 27 26 25 25 23 22 22 20 19 18 17 17 16 15 14 14 14 13 13 13 13 14 14 14 14 13 13
17 16 16 17 18 18 20 22 24 26 27 28 30 31 31 30 28 27 27 26 25 24 23 22 21 20 19 19 18 17 16 15 15 15 15 14 15 15 15 15 14 14 14
17 16 16 16 16 17 18 20 22 24 26 27 29 30 30 31 30 28 27 28 27 26 24 23 22 21 20 20 19 18 17 17 17 16 16 15 16 16 16 16 15 15 15
17 17 15 14 14 15 16 18 20 22 24 26 28 29 30 31 31 30 28 28 28 27 25 24 23 22 22 21 20 20 19 18 18 18 17 17 17 17 17 17 17 16 16
17 16 14 14 13 14 15 16 18 20 23 25 26 27 29 29 30 31 29 28 28 28 26 25 24 23 22 22 22 21 20 20 19 19 18 18 18 18 18 18 18 17 17
17 16 14 13 12 12 13 14 16 18 20 23 25 26 27 28 29 30 29 28 28 28 27 26 26 25 24 24 24 23 22 21 21 20 20 19 19 19 19 19 19 19 19
17 16 15 13 12 11 11 12 14 17 18 19 22 25 27 28 28 29 29 28 28 29 29 28 26 27 26 25 25 25 24 23 23 22 22 21 21 21 21 20 20 20 20
17 16 15 13 11 10 9 10 12 14 16 17 20 22 25 27 27 29 29 29 29 29 29 29 28 27 26 27 27 26 26 25 25 24 23 23 22 23 22 22 21 21 21
16 16 14 12 10 8 7 7 9 11 13 15 18 20 22 25 26 27 28 29 29 29 29 29 29 28 27 27 28 28 28 27 26 26 25 24 24 24 24 23 23 23 22
17 16 14 12 9 7 5 5 6 8 10 13 16 18 21 23 24 25 27 28 28 28 28 29 30 29 29 28 28 29 30 29 28 27 27 26 26 26 25 25 24 24 24
17 16 14 12 9 6 4 3 4 6 8 9 12 15 18 20 23 24 25 27 28 27 28 28 29 29 29 29 29 30 30 30 30 29 28 28 27 27 27 27 26 27 26
17 16 15 12 9 6 4 2 2 5 6 8 9 12 15 18 21 22 23 25 26 26 26 27 28 29 29 29 29 30 31 30 30 30 29 29 29 29 29 29 28 28 28
17 16 15 13 10 7 5 3 1 2 4 6 8 10 12 15 18 20 21 22 23 25 25 27 27 28 28 29 29 29 30 31 30 30 30 30 30 30 30 30 30 30 30
17 16 15 13 11 8 6 4 2 0 2 4 6 8 10 13 15 17 18 19 21 23 24 25 26 27 28 28 28 28 29 30 30 30 31 31 31 31 31 31 32 32 32
17 16 15 14 12 9 7 5 3 1 1 3 5 7 9 11 13 16 17 18 20 22 23 23 24 25 26 26 27 27 28 29 29 30 30 31 32 32 32 32 33 34 34
16 15 14 14 12 10 7 5 4 2 1 1 3 5 7 9 11 13 15 16 17 20 21 22 22 23 23 24 25 25 27 29 30 31 32 32 33 34 34 34 35 36 36
15 14 14 13 13 12 9 7 5 3 2 1 2 4 6 8 10 11 12 14 15 16 18 19 20 21 21 22 23 24 25 27 29 30 31 32 34 35 35 36 37 37 38
13 13 13 12 12 11 10 8 6 5 3 1 1 3 5 6 8 10 11 12 13 14 16 17 18 19 20 20 21 23 24 26 27 29 30 31 33 34 36 37 38 38 39
12 12 12 12 11 11 10 9 7 6 5 3 1 1 3 5 7 8 10 11 12 13 15 16 17 17 18 18 20 21 22 22 25 27 29 31 32 34 35 36 38 39 39
11 11 11 11 11 10 10 9 7 6 5 4 2 1 1 3 5 7 9 9 10 12 13 14 15 16 17 17 19 20 21 22 24 25 27 29 31 32 34 36 37 38 39
10 10 10 10 9 9 9 9 8 6 5 4 3 2 1 2 3 5 7 8 9 11 12 12 13 14 15 16 17 18 19 21 23 24 25 27 28 30 32 34 35 36 37
10 10 9 9 9 8 8 8 8 6 5 5 4 3 2 2 3 4 5 7 8 10 11 12 12 12 13 14 15 15 16 17 19 21 22 24 25 27 29 30 33 34 35
10 10 9 9 8 8 8 7 7 7 6 5 4 4 4 3 3 4 5 6 8 9 10 11 12 12 13 13 14 15 16 17 18 19 20 21 23 24 26 28 30 32 34
12 11 10 9 9 8 8 7 7 7 6 6 6 5 5 5 5 5 6 7 8 9 10 11 12 13 14 14 15 15 16 17 18 18 19 20 22 23 24 25 27 29 30
13 12 11 11 10 10 9 9 8 8 7 7 7 7 7 7 7 7 8 8 9 10 11 11 12 13 14 15 16 16 17 17 18 19 19 20 21 22 24 25 26 27 28

GEFSMA_500_meanwind_120.txt.gz
Wind_Speed
18 19 19 20 20 21 21 22 24 25 27 27 26 26 26 25 26 24 23 22 20 19 19 18 17 16 14 14 13 13 12 13 13 12 12 13 14 14 15 14 14 14 14
18 18 18 19 19 20 20 21 22 24 26 27 26 26 26 26 26 25 25 24 23 21 20 20 19 17 16 15 15 15 14 14 14 13 13 14 15 15 15 15 15 15 15
18 19 19 19 19 20 20 21 22 23 24 25 26 26 27 27 28 27 26 25 24 23 22 21 20 19 18 17 17 16 16 15 15 15 14 14 15 15 16 16 16 16 15
18 19 19 19 19 19 19 20 21 22 22 24 24 25 27 28 29 28 28 26 26 24 24 22 21 20 19 19 18 18 17 16 16 16 15 15 15 15 15 16 16 16 16
18 18 18 18 18 18 18 18 19 20 21 22 23 24 26 27 28 28 29 28 27 26 25 24 23 21 20 20 20 20 19 18 18 17 17 16 15 15 15 16 16 16 16
18 18 18 18 18 17 17 17 18 19 19 21 22 23 25 27 28 28 28 29 29 27 26 25 24 23 22 21 21 21 20 19 19 19 18 18 17 16 16 16 17 17 16
18 18 18 17 17 16 16 15 16 17 18 19 21 22 24 26 27 27 28 29 29 28 27 27 26 25 24 22 21 22 22 21 20 20 19 19 18 18 17 17 18 17 17
19 18 18 17 16 15 14 13 14 14 16 17 19 21 22 24 26 27 27 28 29 29 28 27 28 27 26 24 23 23 23 23 22 21 21 20 20 19 19 18 19 19 18
19 18 18 17 16 14 13 12 11 12 14 15 17 19 20 22 25 26 27 28 29 29 29 28 29 28 27 25 25 24 23 24 23 23 22 21 21 20 20 20 20 20 19
19 18 18 16 14 13 11 10 9 10 11 13 15 17 19 21 23 25 26 27 29 29 29 29 29 27 27 27 27 26 25 25 25 24 24 23 22 22 21 21 21 21 21
18 17 17 16 14 12 11 9 8 8 9 11 14 16 17 19 21 23 25 26 27 29 29 29 29 28 27 27 27 27 26 26 26 25 25 25 24 23 23 23 23 23 23
18 17 16 15 14 12 10 8 7 7 8 10 12 14 16 18 20 21 23 25 26 27 28 28 28 28 28 27 27 27 27 27 27 27 26 26 26 25 25 25 25 25 25
17 17 16 15 14 13 11 9 7 6 6 7 9 12 14 16 18 19 20 22 23 25 26 26 27 27 28 28 27 27 27 27 28 28 28 28 28 27 27 27 27 26 26
17 16 16 14 13 12 11 9 7 5 4 5 7 9 11 13 15 17 18 19 21 23 24 25 25 27 28 28 28 28 27 27 28 28 28 29 29 28 28 28 28 27 27
16 16 15 14 13 11 10 9 7 5 3 2 4 6 9 11 13 15 16 18 19 21 23 24 24 25 26 27 28 28 27 27 27 28 29 30 30 30 29 29 29 29 29
15 15 14 14 13 12 10 8 7 5 3 2 3 5 7 9 12 13 15 16 18 19 21 23 24 25 25 26 27 27 27 27 28 28 29 30 30 31 30 30 31 31 30
14 14 14 13 13 11 10 8 7 5 4 2 2 4 6 8 10 12 14 16 17 18 19 21 23 23 24 26 27 26 26 27 27 28 29 29 30 30 31 31 31 31 32
14 14 13 12 12 11 10 9 7 6 4 2 2 4 5 7 8 10 12 14 15 15 17 19 20 22 23 24 25 25 25 26 25 26 27 28 29 29 30 31 32 32 33
13 13 13 12 11 11 10 9 8 6 5 3 2 3 4 5 8 9 11 12 14 14 15 17 18 20 21 22 23 24 25 25 25 26 26 26 27 28 30 30 31 32 33
13 13 12 12 11 10 9 8 7 6 5 4 3 2 3 4 6 8 9 10 12 13 14 16 17 18 19 20 21 22 24 24 25 25 26 26 26 27 28 29 30 32 33
13 13 12 12 11 10 9 8 7 6 5 4 3 3 3 4 5 7 9 9 11 12 13 14 15 16 17 19 20 21 21 22 24 24 25 26 27 28 29 30 30 31 32
14 14 13 12 11 10 9 8 7 6 5 4 3 3 3 4 5 7 8 9 10 12 13 13 14 16 17 18 19 20 20 21 21 22 24 25 26 27 28 29 29 30 30
16 15 14 13 12 11 10 8 7 7 6 5 4 4 4 4 5 6 7 9 10 11 12 13 13 14 15 16 17 19 20 21 21 22 24 25 25 26 27 28 28 29 30
18 17 16 15 14 13 11 10 9 7 7 6 5 5 5 5 6 6 7 8 9 10 11 12 12 13 15 16 16 18 19 21 21 22 23 24 25 26 26 27 28 29 29
21 20 18 17 16 15 13 12 11 10 9 8 7 7 6 6 7 7 8 8 9 10 11 12 14 14 15 16 17 18 18 19 20 21 22 23 24 25 25 26 27 27 28
24 22 21 20 18 17 16 15 13 12 11 11 10 10 9 9 9 9 9 9 10 11 12 12 13 14 15 16 17 17 18 18 19 20 20 22 23 24 24 25 26 27 28

GEFSMA_500_meanwind_126.txt.gz
Wind_Speed
17 17 17 18 18 19 19 20 21 21 22 22 22 22 23 23 24 23 23 24 23 21 21 20 20 18 17 16 16 15 15 15 14 14 14 15 16 16 16 17 17 16 16
18 18 18 18 19 19 19 19 20 21 22 22 22 23 24 25 26 25 24 24 23 23 22 21 21 20 19 18 17 17 16 16 16 15 15 15 15 16 15 16 16 16 16
18 18 19 19 19 19 19 18 18 19 20 21 22 22 23 25 26 26 26 25 25 25 24 22 22 21 20 19 19 19 18 18 18 17 16 15 15 15 15 16 16 16 16
18 19 19 19 19 19 19 18 18 18 19 20 21 22 23 24 25 27 28 27 26 26 26 24 23 22 22 20 20 20 19 19 18 18 17 16 16 16 15 16 16 16 16
19 19 19 19 19 18 18 18 17 17 18 18 20 21 23 24 25 26 28 28 28 28 28 26 24 23 23 22 21 20 20 20 19 18 18 18 17 16 16 16 16 16 16
19 19 19 19 19 18 17 16 16 16 17 17 18 19 21 23 24 26 28 29 29 29 28 28 26 24 24 23 23 22 22 21 21 20 19 19 18 18 17 17 16 17 17
19 19 19 19 18 17 16 15 14 15 15 16 17 18 19 21 23 25 27 28 29 29 30 30 28 27 25 25 24 23 23 22 22 21 20 20 19 19 18 18 17 18 18
19 19 19 19 17 17 16 15 14 13 14 15 16 16 18 19 21 24 26 27 29 30 31 31 30 28 27 26 26 25 24 24 23 23 21 21 20 20 19 19 18 18 18
19 19 19 19 18 17 16 15 13 13 13 13 14 15 17 18 20 23 25 26 28 29 30 31 30 30 29 28 27 26 26 25 25 24 23 22 21 21 21 20 19 19 19
19 19 19 18 18 17 16 14 13 12 11 12 14 15 16 18 19 22 24 25 27 28 29 30 30 30 30 29 28 27 27 26 26 25 24 24 23 22 22 22 21 20 20
18 19 19 18 18 17 16 14 13 11 10 11 12 14 16 17 19 20 23 25 27 28 28 29 30 30 31 30 29 28 28 28 26 26 25 25 25 24 24 23 22 22 22
18 18 18 18 17 16 16 15 13 10 9 9 10 11 13 15 18 19 21 24 26 26 28 29 30 30 30 30 30 29 28 29 29 27 26 26 26 25 25 24 23 24 24
18 18 18 18 17 16 15 15 13 10 8 7 8 9 12 14 16 18 20 22 24 26 27 28 30 31 30 30 31 30 29 29 29 29 27 27 26 26 25 25 25 25 25
18 18 18 18 17 16 15 14 12 10 8 6 5 7 9 12 14 16 19 21 23 24 25 27 29 30 30 30 31 30 30 30 30 29 29 28 28 27 27 26 26 26 26
17 17 18 17 17 16 14 13 12 10 8 6 5 5 8 10 13 14 17 19 22 23 24 25 27 29 29 30 30 30 30 30 30 30 29 29 29 28 28 28 28 27 27
17 17 17 17 16 15 14 13 12 10 8 6 5 4 6 8 11 12 15 18 20 22 23 24 25 26 27 29 29 29 29 29 30 30 30 30 30 30 29 29 29 29 29
18 17 17 16 15 15 14 13 12 10 8 7 5 5 5 7 9 11 14 16 18 20 22 22 23 25 26 27 27 28 29 29 30 30 30 30 30 30 30 30 30 30 30
19 18 17 16 15 14 14 13 12 10 9 7 6 6 6 7 8 10 13 15 17 19 20 21 22 23 25 25 26 27 27 28 29 29 29 29 30 30 30 30 29 29 30
19 19 18 17 16 15 14 13 12 10 9 8 7 6 7 8 8 10 11 14 16 18 20 20 21 22 24 24 25 26 27 27 28 29 29 29 29 30 30 29 29 29 30
20 20 19 18 17 16 15 14 13 11 9 9 8 7 7 8 8 10 11 13 15 17 18 19 20 21 22 23 24 25 26 26 27 27 28 29 28 28 28 29 29 29 29
22 21 20 19 17 16 15 14 13 12 10 9 9 8 8 9 9 10 12 13 14 15 17 18 19 19 20 21 22 24 25 24 25 26 27 28 28 28 27 28 28 29 29
23 23 22 21 19 18 16 15 14 13 12 10 9 9 8 8 9 10 11 12 13 14 16 17 18 18 19 20 21 23 24 24 25 26 27 27 28 28 29 29 29 29 28
25 24 24 23 22 20 19 17 16 15 14 13 11 11 10 10 10 10 11 12 13 14 14 16 17 18 19 19 20 22 23 23 24 25 26 27 27 27 27 28 28 29 29
28 27 26 25 24 23 21 20 18 17 16 15 14 13 12 12 12 12 12 12 13 14 14 15 16 17 18 19 19 20 21 22 23 23 24 26 26 26 26 26 27 29 30
30 29 28 27 26 25 24 23 21 20 19 18 17 16 15 14 14 14 14 14 14 15 16 16 17 17 18 19 19 20 20 21 21 22 22 24 24 25 25 26 27 28 28
33 32 31 30 29 28 27 26 24 23 21 21 20 19 18 17 15 15 16 15 15 16 17 17 18 18 19 20 20 21 21 21 22 22 23 23 24 24 25 25 26 27 27

GEFSMA_500_meanwind_132.txt.gz
Wind_Speed
18 19 19 19 19 19 19 18 18 17 17 17 18 19 19 20 20 20 20 21 21 21 21 20 19 18 16 15 15 14 14 15 15 14 14 15 16 17 18 17 18 16 16
18 19 20 20 20 20 19 18 18 18 18 18 18 18 19 20 20 20 21 21 21 22 22 21 20 19 18 17 16 15 15 16 16 16 16 16 17 17 17 17 17 16 16
19 19 20 20 20 20 19 18 18 18 18 18 18 17 18 19 20 20 21 22 22 23 23 22 21 21 20 20 18 16 16 16 17 17 16 16 17 17 17 17 16 15 15
19 20 20 20 20 20 19 18 17 17 17 16 17 17 17 19 19 21 22 22 23 23 24 23 22 21 22 22 21 19 17 18 18 17 17 16 15 16 16 16 16 16 15
20 20 20 20 20 20 19 18 17 17 16 15 15 15 16 17 19 20 21 23 24 24 24 24 23 22 22 22 22 21 19 19 19 18 18 17 16 16 16 16 16 15 15
20 20 20 20 20 20 19 18 18 17 16 15 14 14 14 15 17 19 20 22 24 24 24 24 24 24 23 23 23 22 21 21 21 20 19 18 18 17 16 16 16 15 15
20 20 20 21 20 20 19 19 18 17 16 15 14 14 14 14 15 17 19 21 24 25 25 25 25 24 23 23 23 23 23 22 22 21 20 19 19 18 17 17 17 16 16
20 20 21 21 21 20 20 19 18 17 16 15 14 13 13 14 15 16 18 20 23 24 26 26 26 26 25 24 24 23 23 23 23 22 21 21 20 19 18 17 17 17 17
20 20 21 21 21 20 20 19 18 17 16 14 13 12 12 13 14 15 16 19 21 22 24 26 26 27 26 26 26 24 24 24 24 23 23 22 21 20 19 18 18 18 17
20 20 21 21 21 21 20 19 18 17 16 14 13 12 12 12 13 14 16 18 20 22 24 25 26 26 27 28 26 26 26 25 25 24 24 23 23 22 21 20 19 19 18
20 20 20 21 21 21 20 20 19 18 16 14 13 12 11 11 12 13 15 17 19 22 23 24 25 27 27 27 27 27 27 26 25 25 25 24 24 23 23 21 20 20 19
20 20 20 20 20 20 20 20 18 17 15 13 12 12 11 11 11 12 14 16 18 20 22 23 25 26 27 27 28 28 28 27 27 26 26 26 25 25 24 23 22 21 21
20 20 20 20 20 20 20 19 18 17 15 13 12 11 10 10 10 12 14 16 17 19 21 22 24 26 26 27 27 28 28 27 27 28 28 27 27 26 25 24 23 23 22
20 20 20 20 20 20 19 19 18 17 15 13 12 11 10 10 10 11 13 16 18 19 20 21 24 25 26 27 27 28 28 28 27 28 28 28 27 27 27 25 24 24 24
21 21 21 21 20 20 19 18 18 17 15 13 12 11 11 10 10 11 12 15 16 18 20 22 23 25 26 26 27 28 28 28 28 28 28 29 29 28 27 27 25 25 25
22 21 22 21 21 20 19 18 18 17 16 14 13 12 11 10 10 10 11 13 15 17 19 21 22 23 25 25 26 26 28 28 28 28 27 28 29 29 28 28 28 27 26
23 23 22 22 21 20 19 19 18 17 16 15 13 12 11 11 10 10 10 12 14 15 18 20 21 22 24 24 24 25 27 28 28 29 28 29 29 29 29 29 29 28 27
24 24 23 22 22 21 20 19 19 18 16 15 14 13 12 12 11 11 11 12 13 14 16 18 19 20 22 23 24 25 25 26 28 29 29 29 29 30 29 29 29 29 29
24 24 24 23 23 22 21 20 19 18 17 16 15 15 14 13 13 13 13 14 15 15 16 18 19 20 22 23 24 25 25 25 27 27 28 29 29 30 30 30 30 29 30
25 25 25 24 24 23 22 22 20 20 19 18 16 16 15 15 14 14 15 15 15 16 17 18 19 20 21 22 23 24 25 25 25 27 27 28 29 30 30 31 31 30 30
27 27 26 26 25 24 24 23 22 21 21 19 18 17 16 16 15 15 16 16 17 17 18 18 19 21 22 23 23 24 25 26 26 27 27 28 28 29 30 30 30 30 30
29 29 28 28 27 26 25 25 25 24 22 21 20 19 18 17 17 17 16 16 17 18 18 19 20 20 22 23 24 25 24 25 27 27 27 27 28 28 29 30 30 30 30
32 31 31 30 30 29 27 27 27 27 25 24 22 21 20 20 19 18 18 18 18 19 19 20 21 21 22 22 24 24 25 25 26 28 28 27 27 27 28 28 28 29 30
34 33 33 32 32 31 30 29 29 29 28 27 25 24 23 22 22 20 20 20 20 20 20 21 21 22 22 22 23 24 25 25 25 26 26 26 26 27 27 28 29 29 29
36 36 35 35 34 34 33 32 32 31 30 29 28 27 26 25 24 23 22 21 21 21 21 21 21 22 22 22 22 23 24 25 25 25 26 26 26 26 27 27 28 28 28
39 39 38 38 37 36 35 35 34 34 33 32 31 30 29 27 26 25 24 23 22 22 22 22 22 23 23 23 23 23 24 25 25 25 25 25 26 26 26 26 26 26 26

GEFSMA_500_meanwind_138.txt.gz
Wind_Speed
12 13 14 15 15 15 15 15 15 14 14 14 14 14 15 16 16 17 17 18 19 20 20 20 19 18 17 16 15 14 14 14 14 15 15 15 16 19 22 21 20 20 19
13 14 15 15 15 15 15 15 14 14 14 14 14 14 15 16 17 17 18 19 20 20 21 21 20 20 19 17 17 15 15 15 16 16 16 16 17 19 22 22 21 20 19
14 15 15 16 16 16 15 15 15 15 14 14 14 14 15 15 16 17 18 18 20 21 21 21 21 21 20 19 18 17 16 17 17 18 17 18 18 19 21 22 21 20 19
14 15 16 16 16 16 16 15 15 15 14 13 13 13 14 15 15 17 17 18 19 21 21 21 22 22 21 20 19 18 16 18 18 19 19 19 19 20 20 21 20 19 19
15 16 16 17 17 16 16 16 15 15 14 13 13 12 12 13 14 16 17 18 19 21 22 22 22 23 22 21 20 19 18 19 20 20 20 20 20 20 21 21 20 20 19
15 16 16 17 17 17 17 16 16 15 14 13 12 12 11 12 13 14 16 17 19 20 22 23 23 23 23 22 21 21 20 21 21 21 21 22 21 21 21 21 21 20 20
15 16 17 17 18 18 17 17 16 15 14 13 12 11 11 10 11 13 14 16 18 20 21 23 24 24 24 23 22 23 23 22 22 22 22 23 22 21 21 22 21 21 21
16 16 17 18 18 18 17 17 17 16 14 13 12 11 10 10 10 11 13 15 17 20 21 22 24 24 25 24 24 23 23 23 22 23 24 24 23 22 21 21 22 22 21
16 17 17 18 18 18 18 17 17 16 15 13 12 10 9 9 9 10 12 14 16 18 21 23 24 25 25 25 26 25 24 24 23 24 24 25 24 24 23 22 22 22 21
17 17 18 18 18 18 18 18 17 16 15 14 12 10 9 8 9 9 11 13 15 17 20 22 24 25 25 25 26 27 27 26 25 26 25 25 25 25 24 23 22 22 22
18 18 19 19 19 19 18 18 17 16 15 14 12 10 9 8 8 9 9 11 14 16 19 21 24 25 26 26 26 27 27 27 27 27 26 26 26 25 25 25 24 23 23
18 19 19 19 19 19 18 18 17 16 15 14 13 11 9 9 8 8 9 10 13 15 17 18 22 24 25 26 26 27 28 28 27 28 27 26 26 26 26 26 25 24 23
19 19 20 19 19 19 19 18 17 16 15 14 13 12 10 9 8 8 8 10 12 14 16 18 20 23 25 25 26 27 28 29 28 28 28 27 27 28 27 27 26 25 24
20 20 21 20 20 19 19 18 17 16 15 14 13 12 11 10 8 8 8 10 11 13 15 17 19 22 24 25 26 27 27 28 28 28 28 28 28 28 29 28 27 26 26
20 21 21 21 21 20 19 19 18 17 16 15 13 13 12 10 9 9 9 10 12 13 15 17 19 20 23 25 25 26 27 27 29 29 29 29 30 30 29 29 29 28 28
22 21 21 22 21 21 20 19 19 17 16 16 14 13 12 11 10 10 10 11 12 14 16 18 19 21 22 24 25 26 27 28 29 29 29 30 30 31 31 30 29 29 29
24 23 24 23 22 22 21 20 19 18 17 17 16 15 14 13 12 12 12 12 13 14 15 18 20 21 22 24 25 26 27 28 28 29 29 30 30 30 31 31 30 30 30
26 26 25 25 24 23 22 21 21 20 19 18 17 16 16 15 14 14 13 13 13 15 16 18 20 22 23 24 25 27 28 28 29 30 30 30 31 31 32 31 31 31 32
27 28 27 26 26 25 24 23 22 22 20 20 19 18 17 17 16 15 15 15 15 15 17 18 20 22 24 26 26 27 28 29 29 30 31 31 31 31 31 32 32 32 32
29 29 29 28 28 27 26 25 24 23 22 22 21 20 19 19 18 18 18 18 18 18 18 19 20 22 24 26 27 28 29 29 30 30 31 32 32 32 33 32 33 34 33
30 31 31 30 29 28 28 27 26 25 25 24 23 22 22 21 20 20 20 20 20 20 20 21 21 22 24 26 28 29 30 30 31 31 31 32 32 33 34 34 34 34 34
32 32 32 32 31 30 29 28 28 27 27 26 26 25 25 24 24 24 23 23 23 23 23 24 24 24 25 26 28 30 30 31 31 32 32 32 32 34 34 34 33 33 34
34 34 34 33 33 32 31 30 29 28 29 29 29 29 28 28 28 27 27 26 26 26 26 26 26 27 27 27 28 30 31 32 33 33 33 32 32 33 34 34 34 33 33
35 35 35 35 35 35 34 33 32 31 31 32 32 32 32 32 31 31 31 30 29 28 28 28 28 28 28 29 30 31 32 33 33 34 33 33 33 32 33 33 34 34 34
36 36 37 38 38 38 37 36 35 34 33 34 35 35 35 35 35 35 35 33 32 32 32 32 31 31 31 31 31 32 33 33 34 33 33 34 34 34 34 33 33 33 34
38 39 40 41 41 40 39 38 37 37 36 36 37 37 38 38 38 37 37 37 35 35 34 34 34 34 33 33 33 33 33 34 34 33 33 33 34 34 34 33 34 34 33

GEFSMA_500_meanwind_144.txt.gz
Wind_Speed
13 13 14 14 15 15 15 14 13 13 13 13 13 13 13 13 14 14 15 15 15 16 16 15 16 17 16 16 15 15 15 17 17 17 18 19 18 19 20 20 20 19 18
13 14 14 15 15 16 16 15 14 14 13 13 13 13 12 12 13 14 15 15 15 16 17 16 17 17 17 17 16 15 15 17 18 18 19 18 18 19 20 20 20 20 18
14 14 15 15 16 16 16 16 15 15 14 13 13 12 12 12 12 13 14 14 15 16 17 17 17 18 17 17 17 16 17 18 19 19 19 19 19 19 20 21 21 21 19
14 15 15 16 16 17 17 17 16 15 14 13 13 12 12 11 11 12 13 14 15 16 17 18 18 18 19 18 18 17 18 19 19 19 19 19 20 20 21 21 22 21 20
14 15 15 16 16 17 17 17 17 16 14 14 13 12 12 11 10 10 12 13 15 16 17 18 19 19 20 19 19 19 19 19 20 20 19 19 20 20 22 22 23 23 21
14 14 15 16 17 17 18 18 17 16 15 14 13 12 12 11 10 10 11 12 14 15 17 18 19 20 21 21 20 20 20 20 21 22 20 20 19 21 22 22 24 24 23
14 15 16 17 17 18 18 18 17 17 16 15 14 13 12 11 10 9 10 11 13 15 16 18 19 20 21 21 21 21 21 22 23 23 23 21 21 21 23 24 25 24 23
15 16 17 17 18 18 18 18 17 17 17 16 15 14 13 11 10 10 9 10 11 14 16 17 19 20 20 21 22 22 22 22 23 24 24 23 22 22 23 24 25 24 24
16 17 17 18 18 18 19 18 18 17 17 16 15 14 13 13 11 10 10 10 10 12 14 16 18 20 21 21 22 23 22 22 22 23 24 24 24 24 24 24 24 24 24
17 17 18 18 18 19 19 19 19 18 18 17 15 14 13 13 12 11 10 9 9 11 13 15 17 20 21 22 22 22 23 23 24 24 25 25 25 25 26 25 25 25 24
18 18 19 19 19 20 20 20 20 19 18 17 16 14 13 13 12 11 11 10 9 10 12 14 16 19 21 22 22 22 23 24 25 25 25 26 27 26 27 26 26 27 26
19 19 20 20 20 21 21 21 20 19 18 17 16 15 14 13 12 11 11 10 9 9 11 13 15 17 20 21 23 23 24 25 25 26 26 27 28 28 28 28 27 28 27
19 20 21 21 21 22 22 21 21 20 19 18 16 16 15 14 13 12 11 10 9 9 9 11 14 16 19 21 22 24 24 25 26 26 27 28 28 28 28 29 29 29 29
20 20 21 22 22 22 22 22 21 20 20 19 18 17 15 14 14 13 12 11 11 10 10 10 13 15 18 20 22 23 24 26 27 27 27 28 28 28 29 29 30 30 30
21 22 22 23 23 23 23 23 22 22 21 19 18 17 17 16 15 14 13 12 12 11 12 12 13 14 17 20 22 23 25 26 27 28 28 28 28 28 28 29 30 30 31
22 23 23 24 24 24 24 24 24 23 22 21 20 19 18 17 16 16 15 14 13 13 13 14 14 15 17 19 22 24 25 26 27 27 29 29 30 30 29 29 30 31 32
23 24 25 26 26 25 25 25 25 24 23 23 22 21 20 19 18 18 17 16 15 15 14 15 15 16 17 19 21 24 25 26 28 28 29 29 30 30 31 31 30 31 33
24 25 26 27 27 27 27 27 27 26 26 25 24 23 21 20 19 19 18 18 17 17 16 17 17 18 18 19 21 23 25 27 28 29 30 31 31 31 32 32 31 32 32
26 27 28 29 28 28 29 29 28 28 27 26 24 23 22 21 20 20 20 20 19 19 19 19 19 20 21 21 22 24 26 28 29 30 31 32 32 32 33 34 33 33 33
28 28 29 30 30 30 31 30 30 29 28 26 25 24 23 22 21 21 21 21 21 21 21 21 22 22 23 23 24 25 26 29 30 31 32 33 33 34 35 35 35 35 34
30 30 31 32 32 32 32 31 30 29 27 27 26 26 25 24 24 24 24 23 23 23 24 24 24 25 25 26 26 27 28 30 31 32 33 35 35 35 36 36 36 36 35
31 32 33 33 33 33 32 31 30 29 28 28 28 27 27 26 26 27 27 27 26 26 26 26 26 27 28 29 29 30 30 31 33 35 36 36 37 37 37 37 37 36 36
32 33 34 35 34 34 33 32 30 29 29 29 29 29 29 29 28 28 29 30 30 30 30 30 30 30 31 31 32 33 33 34 34 35 37 37 38 38 37 38 38 38 38
34 34 35 36 36 35 34 33 32 31 31 31 32 32 31 30 30 30 31 32 33 33 33 33 33 33 33 34 35 35 35 36 37 37 38 38 38 39 39 39 39 39 38
35 36 36 37 36 36 35 34 34 34 34 34 35 34 33 32 32 33 34 35 35 36 36 36 36 36 36 36 36 36 36 37 38 38 39 40 40 40 40 40 40 40 40
37 38 38 38 37 37 37 36 36 36 36 36 37 37 36 35 35 35 35 36 37 38 38 39 38 38 38 38 39 38 38 38 39 40 40 40 40 41 41 41 40 40 41